Miscellaneous Local Product
Issued by NWS North Platte, NE

Home | Current Version | Previous Version | Text Only | Print | Product List | Glossary On
Versions: 1 2 3 4 5 6 7 8 9 10 11 12 13 14 15 16 17 18 19 20 21 22 23 24 25 26 27 28 29 30 31 32 33 34 35 36 37 38 39 40 41 42 43 44 45 46 47 48 49 50
000
AXUS43 KLBF 020010
MISLBF


WESTERN AND NORTH CENTRAL NEBRASKA HOURLY WEATHER ROUNDUP
NATIONAL WEATHER SERVICE NORTH PLATTE NE
700 PM CDT SAT AUG 01 2015

***STATIONS NOT REPORTING VARIABLES SUCH AS SKY/WEATHER OR
PRESSURE ARE PROVIDED BY THE NEBRASKA DEPARTMENT OF
ROADS...RAWS...AND APRS NETWORKS...AND ARE NOT UNDER
NATIONAL WEATHER SERVICE QUALITY CONTROL***

...OBSERVATIONS IN AND NEAR THE EASTERN PANHANDLE OF NEBRASKA...

CITY           SKY/WX    TMP DP  RH WIND       PRES   REMARKS
PINE RIDGE     TSTM      78  67  68 NE9       29.97R
CHADRON        SUNNY     92  60  34 S10       29.92S HX  91
ALLIANCE       MOSUNNY   83  58  42 S14       29.98F
SIDNEY         MOSUNNY   76  59  55 E25G41    30.04R
BIG SPRINGS      N/A     86  55  34 SE12        N/A
$$

...OBSERVATIONS IN NORTH CENTRAL NEBRASKA...

CITY           SKY/WX    TMP DP  RH WIND       PRES   REMARKS
VALENTINE      SUNNY     83  57  41 S15       29.95F
THEDFORD       PTSUNNY   80  59  49 S14       29.97F
AINSWORTH      SUNNY     82  57  42 SW15      29.96S
O`NEILL        SUNNY     85  56  37 SW13G20   29.92S
ORD            MOSUNNY   80  58  46 S7        29.92F
BROKEN BOW     PTSUNNY   80  58  46 S8        29.95F
SPRINGVIEW       N/A     85  62  46 W9G17       N/A
CHAMBERS         N/A     84  56  38 S10         N/A
EWING            N/A     83  65  54 S5          N/A
$$

...OBSERVATIONS IN SOUTHWEST NEBRASKA AND FAR NORTHEAST COLORADO...

CITY           SKY/WX    TMP DP  RH WIND       PRES   REMARKS
WRAY           FAIR      91  46  21 SE15G25   30.00S
IMPERIAL       SUNNY     89  49  25 SE17      29.98S
OGALLALA       PTSUNNY   84  64  50 E13       30.00R
NORTH PLATTE   MOSUNNY   78  61  55 SE14      29.97F
MCCOOK         SUNNY     92  55  28 S12       29.95F HX  90
LEXINGTON      MOSUNNY   83  62  50 E7        29.98F
PAXTON           N/A     83  68  59 E5          N/A
BRADY            N/A     79  64  59 N3          N/A
CALLAWAY         N/A     75  65  71 S7          N/A
$$

...NORTH PLATTE AREA...

CITY           SKY/WX    TMP DP  RH WIND       PRES   REMARKS
AIRPORT        MOSUNNY   78  61  55 SE14      29.97F
DOWNTOWN         N/A     80  64  58 E3          N/A
SANDRIDGE        N/A     79  62  56 E7          N/A
HILLCREST        N/A     79  62  55 SE12        N/A
$$

...SOME WEATHER OBSERVATIONS FROM AROUND THE REGION...

CITY           SKY/WX    TMP DP  RH WIND       PRES   REMARKS
DENVER         PTSUNNY   93  34  12 N10       30.05F
LARAMIE        MOSUNNY   82  26  13 NW5       30.21F
CHEYENNE       PTSUNNY   84  42  22 E13       30.13F
SCOTTSBLUFF    PTSUNNY   85  60  42 E17       29.98R
RAPID CITY     SUNNY     91  50  24 SW5       29.93F
PIERRE         MOSUNNY   92  60  34 SW14      29.79F HX  91
WINNER         FAIR      89  58  34 SW16      29.88F
SIOUX FALLS    MOSUNNY   83  60  45 SW12      29.85F
OMAHA          MOSUNNY   84  68  58 S12       29.90F
GRAND ISLAND   MOSUNNY   79  64  60 S7        29.94F
KANSAS CITY    PTSUNNY   87  72  60 CALM      29.96S HX  93
WICHITA        MOSUNNY   89  69  51 S9        29.94F HX  93
HAYS           SUNNY     91  61  35 SE14      29.95F HX  91
LIBERAL        SUNNY     88  64  45 S13       29.99S
GOODLAND       SUNNY     87  51  28 SE15      30.03S
$$



USA.gov is the U.S. government's official web portal to all federal, state and local government web resources and services.